Location: High Cliff State Park
(44.1557°N, 88.2948°W)
Time: 06:22:00
(UTC-05:00)

Amateur Radio Satellites - All Passes

Search period start: 28 June 2016 05:52
Search period end: 29 June 2016 05:52
Location: High Cliff State Park, 44.1557°N, 88.2948°W

Satellite Date Start Highest point End Downlink Frequencies (MHz)
Time Altitude Azimuth
AIST 2 28 Jun 05:54:58 05:59:04 67° 307° (NW) 06:03:13 435.215
CUTE-I 28 Jun 05:55:04 05:57:40 14° 88° (E) 06:00:15 437.470
HORYU 2 28 Jun 05:55:10 05:59:42 83° 105° (ESE) 06:04:11 437.375
BRITE-PL 28 Jun 06:02:10 06:04:54 17° 92° (E) 06:07:38 437.365/2234.400
AO-85 28 Jun 06:11:27 06:15:58 52° 50° (NE) 06:20:05 145.980
NOAA 15 28 Jun 06:23:36 06:28:21 33° 96° (E) 06:33:02 137.62
AO-7 28 Jun 06:31:18 06:38:31 34° 305° (NW) 06:45:42 29.400- 29.500
GOMX 1 28 Jun 06:38:21 06:41:23 19° 93° (E) 06:44:29 467.674
PHONESAT 2.4 28 Jun 06:39:56 06:40:34 10° 151° (SSE) 06:41:12 2401.200-2431.200
NOAA 18 28 Jun 06:48:28 06:53:46 44° 99° (E) 06:59:02 137.9125
Cubesat XI-IV 28 Jun 06:58:28 07:03:43 50° 100° (E) 07:08:55 437.490
STRAND 1 28 Jun 06:58:35 07:03:39 62° 72° (ENE) 07:08:45 437.568
CUSAT 1 28 Jun 07:01:49 07:08:48 38° 92° (E) 07:14:51 437.405
GONETS M04 28 Jun 07:03:50 07:11:55 44° 273° (W) 07:20:00
DANDE 28 Jun 07:19:21 07:26:17 30° 87° (E) 07:32:47 436.750
Cosmos 2499 28 Jun 07:21:00 07:29:19 49° 272° (W) 07:37:12 435.465 / 435.565
LilacSat-2 28 Jun 07:24:01 07:27:55 79° 284° (WNW) 07:31:48 437.200
CUTE-I 28 Jun 07:32:57 07:38:22 83° 285° (WNW) 07:43:44 437.470
PRISM 28 Jun 07:33:12 07:36:18 21° 65° (ENE) 07:39:23 437.425
HORYU 2 28 Jun 07:33:51 07:35:35 12° 301° (WNW) 07:37:19 437.375
AIST 2 28 Jun 07:36:39 07:38:21 12° 327° (NNW) 07:40:03 435.215
BRITE-PL 28 Jun 07:39:44 07:43:39 41° 289° (WNW) 07:47:33 437.365/2234.400
DOVE 4 28 Jun 07:40:26 07:44:31 40° 98° (E) 07:48:47 437.250
AO-85 28 Jun 07:52:55 07:55:56 18° 251° (WSW) 07:58:47 145.980
NOAA 15 28 Jun 08:03:24 08:08:06 34° 294° (WNW) 08:12:46 137.62
CANX-2 28 Jun 08:05:56 08:09:20 22° 93° (E) 08:12:42 2200.000
COMPASS 1 28 Jun 08:11:30 08:12:36 11° 88° (E) 08:13:43 437.405
PHONESAT 2.4 28 Jun 08:13:51 08:16:36 30° 166° (SSE) 08:19:21 2401.200-2431.200
GOMX 1 28 Jun 08:15:46 08:19:39 38° 289° (WNW) 08:23:40 467.674
HO-68 28 Jun 08:25:41 08:32:23 40° 98° (E) 08:39:02 435.675
CUTE 1.7 + AOD 2 28 Jun 08:25:42 08:29:33 31° 96° (E) 08:33:22 437.475
NOAA 18 28 Jun 08:29:30 08:34:13 29° 297° (WNW) 08:38:55 137.9125
SEEDS 28 Jun 08:30:44 08:34:18 26° 94° (E) 08:37:50 437.485
Cubesat XI-IV 28 Jun 08:39:11 08:43:28 25° 298° (WNW) 08:47:44 437.490
CINEMA 3 28 Jun 08:39:22 08:43:48 52° 100° (E) 08:48:25 145.822/145.860
STRAND 1 28 Jun 08:39:54 08:43:14 17° 269° (W) 08:46:37 437.568
CUBEBUG 2 28 Jun 08:40:34 08:43:45 18° 92° (E) 08:46:59 437.445
CUSAT 1 28 Jun 08:43:28 08:50:49 46° 286° (WNW) 08:57:03 437.405
ANTELSAT 28 Jun 08:55:05 08:56:31 11° 59° (ENE) 08:57:59 437.575/2403.000
AUBIESAT-1 28 Jun 09:00:08 09:00:55 10° 96° (E) 09:01:43 437.475
DANDE 28 Jun 09:00:17 09:08:41 68° 283° (WNW) 09:16:23 436.750
PRISM 28 Jun 09:07:30 09:11:22 37° 262° (W) 09:15:15 437.425
ZACube-1 28 Jun 09:09:06 09:12:00 16° 91° (E) 09:14:53 437.345
ISS 28 Jun 09:09:39 09:12:46 43° 141° (SE) 09:15:53 145.825
AAUSAT CUBESAT 2 28 Jun 09:10:53 09:14:50 39° 98° (E) 09:18:43 437.432
CUTE-I 28 Jun 09:15:07 09:17:34 13° 304° (NW) 09:20:01 437.470
DOVE 4 28 Jun 09:18:51 09:22:01 20° 294° (WNW) 09:25:18 437.250
Oscar 11 28 Jun 09:19:34 09:22:53 21° 93° (E) 09:26:10 145.826/435.025
FUNcube-1 28 Jun 09:26:21 09:29:59 23° 93° (E) 09:33:36 145.935
UWE-3 28 Jun 09:28:07 09:32:23 37° 97° (E) 09:36:42 435.000/436.395/437.385
DELFI C3 28 Jun 09:28:43 09:29:26 10° 89° (E) 09:30:10 145.870
M-CUBED/EXP-1 PRIME 28 Jun 09:36:39 09:40:10 32° 103° (ESE) 09:43:56 437.505
CANX-2 28 Jun 09:41:22 09:45:17 35° 290° (WNW) 09:49:08 2200.000
TIGRISAT 28 Jun 09:43:59 09:47:49 32° 68° (ENE) 09:51:44 435.000
BEESAT 3 28 Jun 09:44:11 09:45:14 11° 33° (NNE) 09:46:16 437.485
COMPASS 1 28 Jun 09:44:26 09:48:39 69° 285° (WNW) 09:52:47 437.405
PCSat 28 Jun 09:46:01 09:49:37 17° 37° (NE) 09:53:12 145.827
UNISAT 6 28 Jun 09:48:47 09:52:46 38° 70° (ENE) 09:56:52 437.425
PHONESAT 2.4 28 Jun 09:49:59 09:52:55 40° 184° (S) 09:55:50 2401.200-2431.200
CUTE 1.7 + AOD 2 28 Jun 10:01:45 10:05:16 25° 293° (WNW) 10:08:46 437.475
SEEDS 28 Jun 10:06:17 10:10:00 29° 291° (WNW) 10:13:39 437.485
NANOSAT C BR1 28 Jun 10:09:27 10:10:41 11° 60° (ENE) 10:11:57 145.865
QB50P1 28 Jun 10:11:37 10:13:25 13° 61° (ENE) 10:15:12 145.935-145.965
HO-68 28 Jun 10:13:24 10:20:08 44° 296° (WNW) 10:26:50 435.675
POPSAT HIP 1 28 Jun 10:14:35 10:16:34 13° 61° (ENE) 10:18:34 437.405
CUBEBUG 2 28 Jun 10:16:11 10:20:37 50° 288° (WNW) 10:25:09 437.445
CINEMA 3 28 Jun 10:17:32 10:20:36 18° 296° (WNW) 10:23:46 145.822/145.860
BEESAT 2 28 Jun 10:20:33 10:22:32 13° 36° (NE) 10:24:33 435.950
HUMSAT D 28 Jun 10:25:08 10:28:38 23° 94° (E) 10:32:06 437.325/437.525
QB50P2 28 Jun 10:25:45 10:28:39 18° 64° (ENE) 10:31:33 145.880/145.840
JAS-2 28 Jun 10:25:45 10:27:59 12° 51° (NE) 10:30:10 435.910
ANTELSAT 28 Jun 10:28:14 10:32:33 82° 257° (WSW) 10:36:58 437.575/2403.000
POLYITAN 1 28 Jun 10:28:20 10:31:16 19° 64° (ENE) 10:34:12 437.675
DUCHIFAT 1 28 Jun 10:28:37 10:31:16 17° 63° (ENE) 10:33:55 145.980
Cosmos 2491 28 Jun 10:29:11 10:35:50 23° 62° (ENE) 10:42:25 435.465 / 435.565
AUBIESAT-1 28 Jun 10:31:50 10:35:42 72° 291° (WNW) 10:39:52 437.475
ZACube-1 28 Jun 10:44:08 10:48:35 54° 287° (WNW) 10:53:02 437.345
RS-15 28 Jun 10:45:48 10:54:52 29° 102° (ESE) 11:04:16 29.354- 29.394
ISS 28 Jun 10:46:13 10:49:15 35° 340° (NNW) 10:52:18 145.825
AAUSAT CUBESAT 2 28 Jun 10:47:02 10:50:03 20° 295° (WNW) 10:53:03 437.432
DANDE 28 Jun 10:47:52 10:52:43 16° 301° (WNW) 10:57:19 436.750
Oscar 11 28 Jun 10:55:05 10:59:09 38° 290° (WNW) 11:03:10 145.826/435.025
DELFI C3 28 Jun 11:00:46 11:04:45 66° 285° (WNW) 11:08:41 145.870
FUNcube-1 28 Jun 11:02:07 11:06:19 38° 290° (WNW) 11:10:32 145.935
UWE-3 28 Jun 11:04:58 11:08:39 25° 294° (WNW) 11:12:23 435.000/436.395/437.385
M-CUBED/EXP-1 PRIME 28 Jun 11:11:34 11:14:36 23° 297° (WNW) 11:17:49 437.505
O/OREOS (USA 219) 28 Jun 11:14:19 11:16:28 13° 48° (NE) 11:18:38 437.305
BEESAT 3 28 Jun 11:19:47 11:23:44 61° 53° (NE) 11:27:38 437.485
TIGRISAT 28 Jun 11:21:02 11:24:33 24° 266° (W) 11:28:08 435.000
BUGSAT 1 28 Jun 11:24:58 11:28:26 29° 68° (ENE) 11:31:54 437.445
UNISAT 6 28 Jun 11:26:25 11:29:39 21° 267° (W) 11:32:58 437.425
PHONESAT 2.4 28 Jun 11:26:42 11:29:09 22° 200° (SSW) 11:31:36 2401.200-2431.200
PCSat 28 Jun 11:28:25 11:33:54 81° 60° (ENE) 11:39:19 145.827
NANOSAT C BR1 28 Jun 11:41:38 11:45:48 78° 258° (WSW) 11:50:01 145.865
QB50P1 28 Jun 11:44:28 11:48:38 69° 258° (WSW) 11:52:51 145.935-145.965
ESTCUBE 1 28 Jun 11:46:06 11:50:07 31° 96° (E) 11:54:05 437.505/2401.250
50 SAT 28 Jun 11:46:24 11:49:03 18° 93° (E) 11:51:40 437.505
POPSAT HIP 1 28 Jun 11:47:41 11:51:50 65° 258° (WSW) 11:56:02 437.405
AISAT 28 Jun 11:51:49 11:55:19 23° 94° (E) 11:58:48 437.250
UKube-1 28 Jun 11:54:30 11:56:50 14° 91° (E) 11:59:10 .
BEESAT 2 28 Jun 11:57:00 12:01:01 83° 55° (NE) 12:05:00 435.950
SPROUT 28 Jun 11:57:41 11:58:44 11° 89° (E) 11:59:48 437.525
QB50P2 28 Jun 12:00:08 12:04:08 43° 261° (W) 12:08:11 145.880/145.840
HUMSAT D 28 Jun 12:00:24 12:04:19 34° 290° (WNW) 12:08:12 437.325/437.525
DUCHIFAT 1 28 Jun 12:02:34 12:06:35 48° 261° (W) 12:10:39 145.980
POLYITAN 1 28 Jun 12:02:47 12:06:46 42° 261° (W) 12:10:48 437.675
JAS-2 28 Jun 12:04:24 12:11:44 54° 70° (ENE) 12:18:26 435.910
DX 1 28 Jun 12:12:45 12:16:29 27° 96° (E) 12:20:11 434.975-435.025
YUBILEINY 28 Jun 12:12:48 12:20:29 37° 85° (E) 12:28:14 435.215
ISS 28 Jun 12:23:44 12:26:21 21° 0° (N) 12:28:56 145.825
Cosmos 2491 28 Jun 12:25:02 12:33:47 83° 265° (W) 12:42:29 435.465 / 435.565
Oscar 19 28 Jun 12:36:29 12:41:01 32° 66° (ENE) 12:45:33 437.125/150
AIST 2 28 Jun 12:37:14 12:40:11 18° 40° (NE) 12:43:07 435.215
CUBEBUG 1 28 Jun 12:39:22 12:43:43 77° 103° (ESE) 12:48:02 437.445
VELOX 1 28 Jun 12:46:43 12:51:08 83° 103° (ESE) 12:55:32 145.980
O/OREOS (USA 219) 28 Jun 12:52:01 12:56:31 85° 247° (WSW) 13:01:01 437.305
Gurwin Techsat 1B 28 Jun 12:52:11 12:56:08 22° 61° (ENE) 13:00:05 435.225
RS-15 28 Jun 12:54:22 13:05:52 84° 305° (NW) 13:18:04 29.354- 29.394
BEESAT 3 28 Jun 12:59:01 13:00:56 13° 250° (WSW) 13:02:49 437.485
BUGSAT 1 28 Jun 13:00:33 13:03:48 24° 265° (W) 13:07:05 437.445
ITAMSAT 1 28 Jun 13:03:20 13:03:38 10° 54° (NE) 13:03:57 435.822/435.867
PCSat 28 Jun 13:13:34 13:16:34 15° 256° (WSW) 13:19:34 145.827
TISAT 1 28 Jun 13:17:06 13:20:17 20° 94° (E) 13:23:26 437.305
50 SAT 28 Jun 13:19:30 13:22:48 31° 290° (WNW) 13:26:04 437.505
ESTCUBE 1 28 Jun 13:23:00 13:26:50 28° 293° (WNW) 13:30:38 437.505/2401.250
AISAT 28 Jun 13:27:52 13:31:53 35° 291° (WNW) 13:35:53 437.250
UKube-1 28 Jun 13:29:00 13:33:14 56° 288° (WNW) 13:37:26 .
Cosmos 2504 28 Jun 13:29:41 13:36:51 35° 84° (E) 13:44:24 435.465 / 435.565
SPROUT 28 Jun 13:30:54 13:35:11 73° 285° (WNW) 13:39:27 437.525
AO-7 28 Jun 13:48:25 13:54:46 25° 51° (NE) 14:01:08 29.400- 29.500
DX 1 28 Jun 13:48:53 13:52:38 29° 293° (WNW) 13:56:22 434.975-435.025
JAS-2 28 Jun 13:50:12 13:56:55 33° 265° (W) 14:03:10 435.910
ISS 28 Jun 14:00:22 14:03:25 35° 20° (NNE) 14:06:28 145.825
BEESAT 28 Jun 14:03:31 14:05:49 13° 89° (E) 14:08:06 436.000
ITUPSAT 1 28 Jun 14:04:25 14:06:44 13° 89° (E) 14:09:02 437.325
YUBILEINY 28 Jun 14:08:33 14:16:58 52° 285° (WNW) 14:25:32 435.215
AIST 2 28 Jun 14:14:56 14:19:04 65° 240° (WSW) 14:23:11 435.215
Oscar 19 28 Jun 14:15:37 14:20:17 34° 263° (W) 14:24:57 437.125/150
CUBEBUG 1 28 Jun 14:17:46 14:19:23 12° 300° (WNW) 14:21:01 437.445
Cosmos 2491 28 Jun 14:24:09 14:29:12 17° 285° (WNW) 14:34:14 435.465 / 435.565
VELOX 1 28 Jun 14:25:27 14:26:57 12° 301° (WNW) 14:28:27 145.980
Gurwin Techsat 1B 28 Jun 14:30:27 14:35:40 57° 259° (W) 14:40:55 435.225
ITAMSAT 1 28 Jun 14:36:57 14:42:06 65° 72° (ENE) 14:47:18 435.822/435.867
TISAT 1 28 Jun 14:52:10 14:56:03 37° 290° (WNW) 14:59:55 437.305
SO-50 28 Jun 14:57:49 15:00:25 14° 108° (ESE) 15:03:01 436.795
RS-15 28 Jun 15:09:51 15:20:23 36° 334° (NNW) 15:31:22 29.354- 29.394
SWISSCUBE 28 Jun 15:13:58 15:18:47 73° 103° (ESE) 15:23:33 437.505
HORYU 2 28 Jun 15:21:43 15:22:57 11° 58° (ENE) 15:24:11 437.375
Cosmos 2504 28 Jun 15:21:54 15:29:50 54° 285° (WNW) 15:38:22 435.465 / 435.565
ISS 28 Jun 15:36:48 15:39:56 43° 218° (SW) 15:43:03 145.825
AO-7 28 Jun 15:38:13 15:46:35 87° 252° (WSW) 15:55:01 29.400- 29.500
BEESAT 28 Jun 15:39:19 15:44:07 72° 286° (WNW) 15:48:52 436.000
ITUPSAT 1 28 Jun 15:40:16 15:45:05 72° 287° (WNW) 15:49:51 437.325
YUBILEINY 28 Jun 16:14:16 16:16:20 11° 311° (NW) 16:18:25 435.215
ITAMSAT 1 28 Jun 16:18:43 16:22:03 17° 270° (W) 16:25:22 435.822/435.867
MOZHAYETS 4 28 Jun 16:19:25 16:23:44 36° 97° (E) 16:28:00
KKS-1 28 Jun 16:29:43 16:34:02 49° 100° (E) 16:38:21 437.445
SO-50 28 Jun 16:35:23 16:40:17 80° 305° (NW) 16:45:11 436.795
AIST 1 28 Jun 16:37:39 16:41:10 25° 89° (E) 16:44:42
NOAA 18 28 Jun 16:38:49 16:41:55 15° 56° (NE) 16:45:01 137.9125
Cubesat XI-IV 28 Jun 16:45:07 16:47:59 15° 57° (ENE) 16:50:52 437.490
SWISSCUBE 28 Jun 16:53:18 16:55:59 15° 301° (WNW) 16:58:41 437.505
HORYU 2 28 Jun 16:54:22 16:58:48 89° 266° (W) 17:03:17 437.375
STARS 28 Jun 17:02:01 17:06:22 55° 101° (E) 17:10:41 437.465
BRITE-PL 28 Jun 17:13:46 17:17:58 28° 68° (ENE) 17:21:56 437.365/2234.400
CUTE-I 28 Jun 17:17:34 17:22:00 27° 63° (ENE) 17:26:27 437.470
Cosmos 2504 28 Jun 17:22:53 17:25:41 12° 310° (NW) 17:28:33 435.465 / 435.565
RS-15 28 Jun 17:27:37 17:37:40 29° 9° (N) 17:47:54 29.354- 29.394
AO-7 28 Jun 17:34:59 17:40:27 19° 271° (W) 17:45:58 29.400- 29.500
CUSAT 1 28 Jun 17:38:12 17:39:54 13° 60° (ENE) 17:41:27 437.405
NOAA 15 28 Jun 17:44:57 17:50:10 62° 72° (ENE) 17:55:24 137.62
CUBESAT XI-V 28 Jun 17:46:53 17:51:10 36° 97° (E) 17:55:22 437.345
GOMX 1 28 Jun 17:47:56 17:51:42 26° 68° (ENE) 17:55:19 467.674
MOZHAYETS 4 28 Jun 17:56:55 18:00:43 25° 294° (WNW) 18:04:29
DANDE 28 Jun 18:00:13 18:02:44 14° 56° (NE) 18:04:57 436.750
Cosmos 2499 28 Jun 18:06:19 18:13:18 31° 82° (E) 18:20:36 435.465 / 435.565
LilacSat-2 28 Jun 18:07:11 18:10:54 60° 75° (ENE) 18:14:41 437.200
KKS-1 28 Jun 18:07:12 18:10:15 19° 297° (WNW) 18:13:19 437.445
GONETS M04 28 Jun 18:09:50 18:17:59 47° 88° (E) 18:26:09
AIST 1 28 Jun 18:14:52 18:18:39 29° 286° (WNW) 18:22:26
NOAA 18 28 Jun 18:16:21 18:21:49 87° 255° (WSW) 18:27:21 137.9125
SO-50 28 Jun 18:18:22 18:21:33 17° 326° (NW) 18:24:44 436.795
Cubesat XI-IV 28 Jun 18:21:58 18:27:19 88° 258° (WSW) 18:32:44 437.490
STARS 28 Jun 18:39:32 18:42:17 17° 298° (WNW) 18:45:04 437.465
DOVE 4 28 Jun 18:47:37 18:51:45 47° 72° (ENE) 18:55:47 437.250
BRITE-PL 28 Jun 18:51:47 18:56:22 34° 263° (W) 19:00:40 437.365/2234.400
HO-68 28 Jun 18:56:05 19:02:25 36° 61° (ENE) 19:08:48 435.675
CUTE-I 28 Jun 18:56:43 19:01:48 44° 261° (W) 19:06:57 437.470
CANX-2 28 Jun 19:00:24 19:03:34 20° 65° (ENE) 19:06:45 2200.000
COMPASS 1 28 Jun 19:04:51 19:05:27 10° 60° (ENE) 19:06:03 437.405
STRAND 1 28 Jun 19:08:32 19:12:08 19° 91° (E) 19:15:41 437.568
CUSAT 1 28 Jun 19:19:02 19:22:23 32° 269° (W) 19:25:08 437.405
CUTE 1.7 + AOD 2 28 Jun 19:19:49 19:23:28 28° 68° (ENE) 19:27:08 437.475
SEEDS 28 Jun 19:24:03 19:27:23 23° 66° (ENE) 19:30:44 437.485
CUBESAT XI-V 28 Jun 19:24:35 19:28:22 25° 294° (WNW) 19:32:08 437.345
GOMX 1 28 Jun 19:25:37 19:29:43 31° 263° (W) 19:33:38 467.674
NOAA 15 28 Jun 19:26:48 19:30:22 18° 269° (W) 19:33:56 137.62
CUBEBUG 2 28 Jun 19:40:54 19:43:36 17° 63° (ENE) 19:46:21 437.445
DANDE 28 Jun 19:41:29 19:46:35 63° 264° (W) 19:50:20 436.750
RS-15 28 Jun 19:42:01 19:53:58 52° 41° (NE) 20:05:53 29.354- 29.394
CINEMA 3 28 Jun 19:42:47 19:46:48 53° 73° (ENE) 19:50:53 145.822/145.860
LilacSat-2 28 Jun 19:45:10 19:45:37 10° 271° (W) 19:46:04 437.200
AUBIESAT-1 28 Jun 19:47:25 19:49:13 14° 59° (ENE) 19:51:02 437.475
Cosmos 2499 28 Jun 19:57:31 20:05:46 63° 283° (WNW) 20:14:34 435.465 / 435.565
NOAA 18 28 Jun 20:01:15 20:03:15 12° 272° (W) 20:05:16 137.9125
AAUSAT CUBESAT 2 28 Jun 20:02:27 20:06:12 32° 69° (ENE) 20:09:57 437.432
Cubesat XI-IV 28 Jun 20:06:19 20:08:08 12° 273° (W) 20:09:58 437.490
GONETS M04 28 Jun 20:06:50 20:14:54 41° 289° (WNW) 20:23:02
ZACube-1 28 Jun 20:07:06 20:09:33 15° 62° (ENE) 20:12:02 437.345
Oscar 11 28 Jun 20:15:58 20:19:10 20° 65° (ENE) 20:22:23 145.826/435.025
FUNcube-1 28 Jun 20:23:46 20:26:56 21° 65° (ENE) 20:30:08 145.935
M-CUBED/EXP-1 PRIME 28 Jun 20:25:18 20:28:28 48° 67° (ENE) 20:31:39 437.505
UWE-3 28 Jun 20:26:46 20:30:33 34° 69° (ENE) 20:34:26 435.000/436.395/437.385
DOVE 4 28 Jun 20:27:08 20:29:44 16° 268° (W) 20:32:18 437.250
AO-85 28 Jun 20:28:25 20:31:22 15° 108° (ESE) 20:34:18 145.980
CANX-2 28 Jun 20:35:07 20:39:10 40° 262° (W) 20:43:14 2200.000
COMPASS 1 28 Jun 20:36:07 20:40:19 87° 253° (WSW) 20:44:35 437.405
HO-68 28 Jun 20:43:02 20:49:55 50° 260° (W) 20:56:54 435.675
STRAND 1 28 Jun 20:46:36 20:51:40 58° 289° (WNW) 20:56:42 437.568
PRISM 28 Jun 20:47:40 20:51:02 24° 95° (E) 20:54:22 437.425
CUTE 1.7 + AOD 2 28 Jun 20:55:32 20:59:14 28° 265° (W) 21:02:58 437.475
SEEDS 28 Jun 20:59:00 21:02:54 35° 264° (W) 21:06:50 437.485
CUBEBUG 2 28 Jun 21:15:49 21:19:51 48° 261° (W) 21:23:59 437.445
HUMSAT D 28 Jun 21:18:13 21:21:18 20° 65° (ENE) 21:24:25 437.325/437.525
AUBIESAT-1 28 Jun 21:20:23 21:23:27 36° 256° (WSW) 21:26:34 437.475
CINEMA 3 28 Jun 21:22:17 21:24:20 13° 270° (W) 21:26:24 145.822/145.860
AAUSAT CUBESAT 2 28 Jun 21:38:21 21:41:43 23° 266° (W) 21:45:07 437.432
ZACube-1 28 Jun 21:41:14 21:45:22 56° 260° (W) 21:49:37 437.345
DELFI C3 28 Jun 21:47:35 21:51:38 86° 72° (ENE) 21:55:41 145.870
Oscar 11 28 Jun 21:50:56 21:55:01 41° 262° (W) 21:59:10 145.826/435.025
RS-15 28 Jun 21:54:55 22:06:53 61° 246° (WSW) 22:18:46 29.354- 29.394
Cosmos 2499 28 Jun 21:56:39 22:01:01 15° 307° (NW) 22:05:30 435.465 / 435.565
FUNcube-1 28 Jun 21:59:00 22:02:55 38° 263° (W) 22:06:58 145.935
UWE-3 28 Jun 22:03:49 22:07:06 22° 267° (W) 22:10:28 435.000/436.395/437.385
AO-85 28 Jun 22:05:48 22:11:15 87° 305° (NW) 22:16:30 145.980
VELOX 1 28 Jun 22:13:09 22:13:49 10° 58° (ENE) 22:14:30 145.980
ANTELSAT 28 Jun 22:18:54 22:22:19 20° 92° (E) 22:25:46 437.575/2403.000
YUBILEINY 28 Jun 22:20:48 22:26:59 20° 59° (ENE) 22:33:07 435.215
PRISM 28 Jun 22:22:48 22:26:21 29° 292° (WNW) 22:29:52 437.425
50 SAT 28 Jun 22:27:01 22:28:32 12° 63° (ENE) 22:30:01 437.505
ESTCUBE 1 28 Jun 22:46:54 22:50:59 35° 69° (ENE) 22:55:07 437.505/2401.250
UKube-1 28 Jun 22:50:39 22:53:17 16° 62° (ENE) 22:55:55 .
AISAT 28 Jun 22:50:40 22:54:16 25° 66° (ENE) 22:57:53 437.250
HUMSAT D 28 Jun 22:52:45 22:56:39 39° 263° (W) 23:00:39 437.325/437.525
SPROUT 28 Jun 22:53:12 22:54:29 11° 60° (ENE) 22:55:46 437.525
TIGRISAT 28 Jun 23:09:36 23:14:13 60° 101° (E) 23:18:51 435.000
DX 1 28 Jun 23:09:39 23:13:25 30° 67° (ENE) 23:17:12 434.975-435.025
UNISAT 6 28 Jun 23:14:48 23:19:28 72° 103° (ESE) 23:24:08 437.425
Cosmos 2504 28 Jun 23:20:49 23:25:47 16° 55° (NE) 23:30:41 435.465 / 435.565
NANOSAT C BR1 28 Jun 23:25:44 23:28:13 15° 91° (E) 23:30:41 145.865
SO-50 28 Jun 23:25:46 23:29:34 23° 40° (NE) 23:33:15 436.795
QB50P1 28 Jun 23:28:36 23:31:25 17° 92° (E) 23:34:14 145.935-145.965
POPSAT HIP 1 28 Jun 23:31:44 23:34:42 18° 92° (E) 23:37:39 437.405
Cosmos 2491 28 Jun 23:33:48 23:40:20 24° 79° (E) 23:46:52 435.465 / 435.565
CUBEBUG 1 28 Jun 23:36:27 23:40:47 76° 75° (ENE) 23:45:09 437.445
QB50P2 28 Jun 23:43:38 23:47:14 26° 95° (E) 23:50:49 145.880/145.840
VELOX 1 28 Jun 23:45:09 23:49:34 87° 76° (ENE) 23:54:00 145.980
DUCHIFAT 1 28 Jun 23:45:27 23:48:50 23° 94° (E) 23:52:13 145.980
POLYITAN 1 28 Jun 23:46:13 23:49:52 26° 95° (E) 23:53:29 437.675
AO-85 28 Jun 23:48:34 23:52:26 20° 323° (NW) 23:56:10 145.980
ANTELSAT 28 Jun 23:54:47 23:59:15 46° 289° (WNW) 00:03:44 437.575/2403.000
50 SAT 28 Jun 23:58:06 00:01:44 55° 259° (W) 00:05:26 437.505
TISAT 1 29 Jun 00:10:33 00:13:32 19° 65° (ENE) 00:16:31 437.305
RS-15 29 Jun 00:11:49 00:16:35 13° 268° (W) 00:21:21 29.354- 29.394
YUBILEINY 29 Jun 00:16:18 00:25:12 86° 82° (E) 00:34:04 435.215
ESTCUBE 1 29 Jun 00:24:06 00:27:52 25° 266° (W) 00:31:38 437.505/2401.250
UKube-1 29 Jun 00:24:40 00:28:54 55° 259° (W) 00:33:09 .
SPROUT 29 Jun 00:25:33 00:29:48 80° 257° (WSW) 00:34:05 437.525
AISAT 29 Jun 00:26:39 00:30:37 33° 263° (W) 00:34:37 437.250
BUGSAT 1 29 Jun 00:39:46 00:43:39 39° 99° (E) 00:47:32 437.445
DX 1 29 Jun 00:45:53 00:49:35 27° 264° (W) 00:53:18 434.975-435.025
SWISSCUBE 29 Jun 00:47:09 00:49:22 13° 58° (ENE) 00:51:35 437.505
TIGRISAT 29 Jun 00:47:29 00:50:26 17° 298° (WNW) 00:53:24 435.000
UNISAT 6 29 Jun 00:53:06 00:55:36 15° 299° (WNW) 00:58:07 437.425
JAS-2 29 Jun 00:58:23 01:03:27 33° 95° (E) 01:08:09 435.910
NANOSAT C BR1 29 Jun 01:00:07 01:04:14 51° 288° (WNW) 01:08:22 145.865
QB50P1 29 Jun 01:03:21 01:07:25 45° 289° (WNW) 01:11:29 145.935-145.965
SO-50 29 Jun 01:05:49 01:10:25 58° 240° (WSW) 01:14:51 436.795
POPSAT HIP 1 29 Jun 01:06:38 01:10:40 42° 289° (WNW) 01:14:42 437.405
BEESAT 29 Jun 01:10:59 01:14:23 20° 62° (ENE) 01:17:49 436.000
ITUPSAT 1 29 Jun 01:12:12 01:15:39 20° 62° (ENE) 01:19:07 437.325
Cosmos 2504 29 Jun 01:12:15 01:21:09 67° 78° (ENE) 01:29:40 435.465 / 435.565
CUBEBUG 1 29 Jun 01:16:44 01:17:36 10° 272° (W) 01:18:28 437.445
QB50P2 29 Jun 01:19:18 01:23:01 30° 292° (WNW) 01:26:45 145.880/145.840
DUCHIFAT 1 29 Jun 01:20:47 01:24:35 33° 291° (WNW) 01:28:24 145.980
POLYITAN 1 29 Jun 01:21:56 01:25:39 29° 292° (WNW) 01:29:22 437.675
Cosmos 2491 29 Jun 01:27:27 01:36:13 76° 279° (W) 01:45:01 435.465 / 435.565
TISAT 1 29 Jun 01:45:00 01:48:55 40° 261° (W) 01:52:52 437.305
PCSat 29 Jun 02:11:22 02:16:38 55° 115° (ESE) 02:21:56 145.827
YUBILEINY 29 Jun 02:14:47 02:20:49 21° 283° (WNW) 02:26:52 435.215
BUGSAT 1 29 Jun 02:15:51 02:18:46 19° 295° (WNW) 02:21:41 437.445
SWISSCUBE 29 Jun 02:21:40 02:26:29 84° 258° (WSW) 02:31:19 437.505
Oscar 19 29 Jun 02:24:51 02:30:00 75° 103° (ESE) 02:35:07 437.125/150
JAS-2 29 Jun 02:43:28 02:48:34 34° 296° (WNW) 02:53:16 435.910
Gurwin Techsat 1B 29 Jun 02:44:58 02:50:10 51° 100° (E) 02:55:20 435.225
BEESAT 29 Jun 02:47:08 02:51:47 53° 260° (W) 02:56:30 436.000
ITUPSAT 1 29 Jun 02:48:26 02:53:07 52° 260° (W) 02:57:50 437.325
BEESAT 3 29 Jun 02:48:51 02:52:44 68° 122° (ESE) 02:56:39 437.485
ITAMSAT 1 29 Jun 02:49:06 02:52:57 20° 92° (E) 02:56:46 435.822/435.867
O/OREOS (USA 219) 29 Jun 03:05:32 03:10:03 85° 109° (ESE) 03:14:33 437.305
Cosmos 2504 29 Jun 03:06:35 03:13:48 29° 279° (W) 03:20:50 435.465 / 435.565
MOZHAYETS 4 29 Jun 03:22:30 03:26:50 41° 70° (ENE) 03:31:13
BEESAT 2 29 Jun 03:27:31 03:31:29 86° 305° (NW) 03:35:29 435.950
KKS-1 29 Jun 03:29:00 03:33:18 54° 72° (ENE) 03:37:38 437.445
Cosmos 2491 29 Jun 03:29:22 03:34:45 17° 303° (WNW) 03:40:09 435.465 / 435.565
AO-7 29 Jun 03:38:48 03:45:49 29° 94° (E) 03:52:46 29.400- 29.500
PCSat 29 Jun 03:55:45 04:00:21 27° 315° (NW) 04:04:59 145.827
Cosmos 2499 29 Jun 03:56:43 04:00:19 13° 51° (NE) 04:03:50 435.465 / 435.565
STARS 29 Jun 03:59:53 04:04:09 58° 73° (ENE) 04:08:28 437.465
Oscar 19 29 Jun 04:05:40 04:08:43 16° 301° (WNW) 04:11:46 437.125/150
AIST 2 29 Jun 04:14:57 04:17:42 17° 111° (ESE) 04:20:28 435.215
GONETS M04 29 Jun 04:18:09 04:25:07 26° 64° (ENE) 04:32:03
AIST 1 29 Jun 04:19:28 04:23:46 77° 82° (E) 04:28:00
Gurwin Techsat 1B 29 Jun 04:25:37 04:29:47 24° 297° (WNW) 04:33:56 435.225
ITAMSAT 1 29 Jun 04:27:38 04:32:45 54° 290° (WNW) 04:37:50 435.822/435.867
BEESAT 3 29 Jun 04:28:16 04:30:50 17° 321° (NW) 04:33:26 437.485
HORYU 2 29 Jun 04:44:59 04:47:43 16° 91° (E) 04:50:25 437.375
O/OREOS (USA 219) 29 Jun 04:47:58 04:50:05 13° 312° (NW) 04:52:14 437.305
CUBESAT XI-V 29 Jun 04:51:21 04:55:46 42° 70° (ENE) 05:00:11 437.345
AO-85 29 Jun 04:57:08 05:00:36 20° 37° (NE) 05:03:51 145.980
MOZHAYETS 4 29 Jun 05:00:36 05:04:10 22° 267° (W) 05:07:46
KKS-1 29 Jun 05:07:35 05:10:12 15° 269° (W) 05:12:50 437.445
BEESAT 2 29 Jun 05:07:54 05:09:57 13° 324° (NW) 05:11:59 435.950
AO-7 29 Jun 05:30:52 05:39:11 68° 293° (WNW) 05:47:26 29.400- 29.500
STARS 29 Jun 05:38:37 05:40:54 14° 270° (W) 05:43:11 437.465
